• în Republica Moldova
  • Lista ţărilor
  • Pe 7 zile
  • Temperatura apei
  • Hartă satelitară
  • Meteo pe hartă
  • Widget-uri
  • user-avatar
    Intrare

    Meteo pe oră la Yevlakh

    Astăzi, 25 Mai, Joi

    Timp Temperatura Precipitaţii Vânt Presiune Umiditate
    00:00 +17°C° 0 mm 3 m/s 760 mmHg 59%
    01:00 +17°C° 0 mm 3 m/s 760 mmHg 59%
    02:00 +16°C° 0 mm 3 m/s 760 mmHg 59%
    03:00 +15°C° 0 mm 4 m/s 760 mmHg 59%
    04:00 +17°C° 0 mm 3 m/s 760 mmHg 57%
    05:00 +18°C° 0 mm 3 m/s 760 mmHg 54%
    06:00 +18°C° 0 mm 3 m/s 760 mmHg 52%
    07:00 +20°C° 0 mm 3 m/s 760 mmHg 46%
    08:00 +22°C° 0 mm 3 m/s 760 mmHg 39%
    09:00 +25°C° 0 mm 3 m/s 760 mmHg 32%
    10:00 +26°C° 0 mm 2 m/s 760 mmHg 30%
    11:00 +27°C° 0 mm 2 m/s 760 mmHg 29%
    12:00 +28°C° 0 mm 1 m/s 760 mmHg 27%
    13:00 +28°C° 0 mm 1 m/s 759 mmHg 27%
    14:00 +29°C° 0 mm 1 m/s 759 mmHg 26%
    15:00 +29°C° 0 mm 1 m/s 759 mmHg 26%
    16:00 +28°C° 0 mm 2 m/s 759 mmHg 29%
    17:00 +28°C° 0 mm 2 m/s 759 mmHg 32%
    18:00 +27°C° 0 mm 2 m/s 760 mmHg 35%
    19:00 +25°C° 0 mm 2 m/s 760 mmHg 40%
    20:00 +21°C° 0 mm 2 m/s 761 mmHg 45%
    21:00 +19°C° 0 mm 2 m/s 761 mmHg 50%
    22:00 +18°C° 0 mm 2 m/s 761 mmHg 57%
    23:00 +17°C° 0 mm 2 m/s 762 mmHg 64%

    Mâine, 26 Mai, Vineri

    Timp Temperatura Precipitaţii Vânt Presiune Umiditate
    00:00 +18°C° 0 mm 1 m/s 762 mmHg 72%
    01:00 +16°C° 0 mm 1 m/s 762 mmHg 76%
    02:00 +16°C° 0 mm 1 m/s 762 mmHg 81%
    03:00 +15°C° 0 mm 1 m/s 762 mmHg 85%
    04:00 +15°C° 0 mm 0 m/s 762 mmHg 81%
    05:00 +16°C° 0 mm 0 m/s 762 mmHg 78%
    06:00 +17°C° 0 mm 0 m/s 762 mmHg 74%
    07:00 +21°C° 0 mm 1 m/s 762 mmHg 66%
    08:00 +23°C° 0 mm 1 m/s 761 mmHg 57%
    09:00 +24°C° 0 mm 1 m/s 761 mmHg 49%
    10:00 +26°C° 0 mm 1 m/s 761 mmHg 44%
    11:00 +27°C° 0 mm 1 m/s 760 mmHg 40%
    12:00 +28°C° 0 mm 1 m/s 760 mmHg 35%
    13:00 +29°C° 0 mm 1 m/s 759 mmHg 35%
    14:00 +29°C° 0 mm 1 m/s 759 mmHg 34%
    15:00 +30°C° 0 mm 1 m/s 758 mmHg 33%
    16:00 +29°C° 0 mm 1 m/s 758 mmHg 36%
    17:00 +29°C° 0 mm 1 m/s 758 mmHg 40%
    18:00 +28°C° 0 mm 1 m/s 758 mmHg 43%
    19:00 +26°C° 0 mm 2 m/s 759 mmHg 46%
    20:00 +25°C° 0 mm 3 m/s 759 mmHg 49%
    21:00 +22°C° 0 mm 4 m/s 760 mmHg 52%
    22:00 +21°C° 0 mm 3 m/s 760 mmHg 59%
    23:00 +20°C° 0 mm 3 m/s 760 mmHg 65%

    Poimâine, 27 Mai, Sâmbătă

    Timp Temperatura Precipitaţii Vânt Presiune Umiditate
    00:00 +19°C° 0 mm 2 m/s 759 mmHg 71%
    01:00 +18°C° 0,1 mm 2 m/s 759 mmHg 73%
    02:00 +19°C° 0,1 mm 1 m/s 759 mmHg 75%
    03:00 +18°C° 0,1 mm 1 m/s 759 mmHg 77%
    04:00 +19°C° 0 mm 1 m/s 759 mmHg 75%
    05:00 +20°C° 0 mm 1 m/s 759 mmHg 73%
    06:00 +21°C° 0 mm 1 m/s 759 mmHg 70%
    07:00 +22°C° 0 mm 1 m/s 759 mmHg 64%
    08:00 +23°C° 0 mm 1 m/s 758 mmHg 59%
    09:00 +25°C° 0 mm 1 m/s 758 mmHg 53%
    10:00 +26°C° 0 mm 1 m/s 757 mmHg 48%
    11:00 +28°C° 0 mm 1 m/s 757 mmHg 43%
    12:00 +29°C° 0 mm 1 m/s 756 mmHg 38%
    13:00 +30°C° 0 mm 1 m/s 756 mmHg 36%
    14:00 +30°C° 0 mm 1 m/s 755 mmHg 35%
    15:00 +31°C° 0 mm 1 m/s 755 mmHg 33%
    16:00 +30°C° 0,1 mm 1 m/s 755 mmHg 36%
    17:00 +30°C° 0,1 mm 1 m/s 755 mmHg 39%
    18:00 +29°C° 0,1 mm 1 m/s 755 mmHg 42%
    19:00 +27°C° 0,2 mm 1 m/s 755 mmHg 48%
    20:00 +24°C° 0,2 mm 1 m/s 756 mmHg 53%
    21:00 +22°C° 0,2 mm 1 m/s 756 mmHg 58%
    22:00 +22°C° 0,1 mm 1 m/s 756 mmHg 60%
    23:00 +21°C° 0,1 mm 1 m/s 756 mmHg 62%

    28 Mai, Duminică

    Timp Temperatura Precipitaţii Vânt Presiune Umiditate
    00:00 +20°C° 0,1 mm 1 m/s 757 mmHg 64%
    01:00 +20°C° 0 mm 1 m/s 757 mmHg 63%
    02:00 +20°C° 0 mm 1 m/s 757 mmHg 62%
    03:00 +20°C° 0 mm 1 m/s 757 mmHg 61%
    04:00 +20°C° 0 mm 2 m/s 757 mmHg 58%
    05:00 +21°C° 0 mm 2 m/s 757 mmHg 55%
    06:00 +21°C° 0 mm 3 m/s 757 mmHg 51%
    07:00 +25°C° 0 mm 3 m/s 757 mmHg 45%
    08:00 +27°C° 0 mm 4 m/s 757 mmHg 38%
    09:00 +29°C° 0 mm 4 m/s 757 mmHg 32%
    10:00 +30°C° 0 mm 4 m/s 756 mmHg 30%
    11:00 +32°C° 0 mm 4 m/s 756 mmHg 28%
    12:00 +34°C° 0 mm 4 m/s 755 mmHg 26%
    13:00 +34°C° 0 mm 3 m/s 755 mmHg 25%
    14:00 +35°C° 0 mm 3 m/s 755 mmHg 24%
    15:00 +35°C° 0 mm 3 m/s 754 mmHg 23%
    16:00 +34°C° 0 mm 3 m/s 754 mmHg 26%
    17:00 +33°C° 0 mm 3 m/s 755 mmHg 29%
    18:00 +31°C° 0 mm 3 m/s 755 mmHg 32%
    19:00 +28°C° 0,4 mm 2 m/s 756 mmHg 39%
    20:00 +25°C° 0,4 mm 2 m/s 757 mmHg 46%
    21:00 +23°C° 0,4 mm 2 m/s 758 mmHg 53%
    22:00 +21°C° 0,2 mm 2 m/s 758 mmHg 56%
    23:00 +21°C° 0,2 mm 1 m/s 759 mmHg 59%

    29 Mai, Luni

    Timp Temperatura Precipitaţii Vânt Presiune Umiditate
    00:00 +21°C° 0,2 mm 1 m/s 759 mmHg 61%
    01:00 +19°C° 0 mm 2 m/s 759 mmHg 62%
    02:00 +19°C° 0 mm 2 m/s 759 mmHg 63%
    03:00 +19°C° 0 mm 2 m/s 760 mmHg 64%
    04:00 +19°C° 0 mm 2 m/s 760 mmHg 63%
    05:00 +20°C° 0 mm 2 m/s 760 mmHg 61%
    06:00 +21°C° 0 mm 2 m/s 761 mmHg 60%
    07:00 +23°C° 0,2 mm 2 m/s 761 mmHg 54%
    08:00 +25°C° 0,2 mm 2 m/s 761 mmHg 49%
    09:00 +26°C° 0,2 mm 2 m/s 762 mmHg 44%
    10:00 +27°C° 0 mm 2 m/s 762 mmHg 42%
    11:00 +28°C° 0 mm 3 m/s 761 mmHg 40%
    12:00 +29°C° 0 mm 3 m/s 761 mmHg 39%
    13:00 +28°C° 0 mm 4 m/s 761 mmHg 41%
    14:00 +28°C° 0 mm 5 m/s 761 mmHg 42%
    15:00 +28°C° 0 mm 6 m/s 761 mmHg 44%
    16:00 +27°C° 0,1 mm 6 m/s 762 mmHg 47%
    17:00 +24°C° 0,1 mm 7 m/s 762 mmHg 49%
    18:00 +23°C° 0,1 mm 7 m/s 763 mmHg 52%
    19:00 +21°C° 0 mm 7 m/s 764 mmHg 55%
    20:00 +19°C° 0 mm 6 m/s 764 mmHg 58%
    21:00 +16°C° 0 mm 5 m/s 765 mmHg 61%
    22:00 +16°C° 0 mm 5 m/s 765 mmHg 61%
    23:00 +15°C° 0 mm 4 m/s 766 mmHg 62%

    30 Mai, Marţi

    Timp Temperatura Precipitaţii Vânt Presiune Umiditate
    00:00 +16°C° 0 mm 3 m/s 766 mmHg 62%
    01:00 +14°C° 0 mm 3 m/s 766 mmHg 64%
    02:00 +15°C° 0 mm 2 m/s 766 mmHg 65%
    03:00 +14°C° 0 mm 2 m/s 766 mmHg 66%
    04:00 +15°C° 0 mm 2 m/s 766 mmHg 64%
    05:00 +16°C° 0 mm 1 m/s 766 mmHg 62%
    06:00 +16°C° 0 mm 1 m/s 766 mmHg 59%
    07:00 +19°C° 0 mm 1 m/s 765 mmHg 56%
    08:00 +19°C° 0 mm 2 m/s 765 mmHg 52%
    09:00 +21°C° 0 mm 2 m/s 765 mmHg 49%
    10:00 +23°C° 0 mm 2 m/s 764 mmHg 46%
    11:00 +24°C° 0 mm 2 m/s 763 mmHg 43%
    12:00 +26°C° 0 mm 2 m/s 763 mmHg 41%
    13:00 +27°C° 0 mm 1 m/s 762 mmHg 39%
    14:00 +27°C° 0 mm 1 m/s 761 mmHg 37%
    15:00 +28°C° 0 mm 1 m/s 761 mmHg 36%
    16:00 +28°C° 0 mm 1 m/s 761 mmHg 38%
    17:00 +28°C° 0 mm 1 m/s 760 mmHg 40%
    18:00 +27°C° 0 mm 1 m/s 760 mmHg 42%
    19:00 +25°C° 0 mm 1 m/s 761 mmHg 48%
    20:00 +23°C° 0 mm 1 m/s 761 mmHg 55%
    21:00 +21°C° 0 mm 1 m/s 761 mmHg 62%
    22:00 +20°C° 0 mm 1 m/s 761 mmHg 64%
    23:00 +19°C° 0 mm 1 m/s 760 mmHg 66%
    Arată mai mult